Location: Newark
(43.6583°N, 1.6617°E)
Time: 13:41:12
(UTC+00:00)

Courier 1B - Pass Details

Date: 30 August 2019
Orbit: 962 x 1209 km, 28.3° (Epoch: 22 October)

Event Time Altitude Azimuth Distance (km) Brightness Sun altitude
Rises 13:54:12 0° 219° (SW) 4,037 11.4 46.6°
Reaches altitude 10° 13:58:15 10° 200° (SSW) 3,035 10.9 46.0°
Maximum altitude 14:02:38 17° 164° (SSE) 2,520 10.1 45.5°
Drops below altitude 10° 14:06:54 10° 127° (SE) 2,931 10.0 44.9°
Sets 14:10:41 0° 108° (ESE) 3,837 10.4 44.3°
